UAL2421 KSFO-KLAS

Flight info

Callsign UAL2421
Flight time 1h 9m
Altitude 29000
Route WESLA5 NTELL Q174 FLCHR COKTL4
Aircraft B738/M-SDE2E3FGHIRWXY/LB1

Departure

Time 2026-05-06 07:33
Airport San Francisco International Airport (KSFO)

Arrival

Time 2026-05-06 08:43
Airport Harry Reid International Airport (KLAS)
Time Latitude Longitude Altitude Speed Heading
2026-05-06 07:08 37.61786 -122.38066 23 ft 0 kts 257°
2026-05-06 07:24 37.61786 -122.38065 21 ft 2 kts 258°
2026-05-06 07:25 37.61788 -122.38039 21 ft 3 kts 257°
2026-05-06 07:25 37.61793 -122.38020 23 ft 4 kts 230°
2026-05-06 07:25 37.61808 -122.38011 24 ft 4 kts 149°
2026-05-06 07:25 37.61836 -122.38040 23 ft 4 kts 136°
2026-05-06 07:26 37.61843 -122.38049 23 ft 0 kts 140°
2026-05-06 07:28 37.61840 -122.38037 23 ft 4 kts 105°
2026-05-06 07:28 37.61732 -122.37944 21 ft 12 kts 164°
2026-05-06 07:29 37.61676 -122.37875 21 ft 12 kts 106°
2026-05-06 07:29 37.61666 -122.37778 21 ft 11 kts 96°
2026-05-06 07:29 37.61656 -122.37681 21 ft 11 kts 99°
2026-05-06 07:29 37.61646 -122.37585 21 ft 12 kts 97°
2026-05-06 07:30 37.61636 -122.37474 24 ft 13 kts 97°
2026-05-06 07:30 37.61624 -122.37365 21 ft 13 kts 97°
2026-05-06 07:30 37.61609 -122.37258 21 ft 12 kts 109°
2026-05-06 07:30 37.61571 -122.37159 21 ft 14 kts 117°
2026-05-06 07:31 37.61514 -122.37026 22 ft 21 kts 117°
2026-05-06 07:31 37.61420 -122.36862 21 ft 28 kts 134°
2026-05-06 07:31 37.61312 -122.36655 21 ft 29 kts 118°
2026-05-06 07:31 37.61219 -122.36436 21 ft 27 kts 118°
2026-05-06 07:32 37.61133 -122.36232 21 ft 25 kts 117°
2026-05-06 07:32 37.61055 -122.36044 21 ft 24 kts 114°
2026-05-06 07:32 37.61115 -122.35893 21 ft 20 kts 27°
2026-05-06 07:32 37.61197 -122.35899 22 ft 11 kts 298°
2026-05-06 07:33 37.61275 -122.36085 21 ft 52 kts 297°
2026-05-06 07:33 37.61547 -122.36734 21 ft 114 kts 297°
2026-05-06 07:33 37.62007 -122.37793 102 ft 153 kts 297°
2026-05-06 07:33 37.62490 -122.38970 680 ft 155 kts 296°
2026-05-06 07:34 37.62990 -122.40175 1306 ft 156 kts 297°
2026-05-06 07:34 37.63513 -122.41385 1934 ft 158 kts 297°
2026-05-06 07:34 37.64041 -122.42591 2545 ft 162 kts 297°
2026-05-06 07:34 37.64592 -122.43846 3149 ft 165 kts 297°
2026-05-06 07:35 37.65183 -122.45187 3460 ft 188 kts 298°
2026-05-06 07:35 37.65861 -122.46718 3689 ft 210 kts 299°
2026-05-06 07:35 37.66593 -122.48420 3858 ft 231 kts 293°
2026-05-06 07:35 37.66772 -122.50475 4055 ft 249 kts 258°
2026-05-06 07:36 37.65919 -122.52456 4289 ft 270 kts 224°
2026-05-06 07:36 37.64287 -122.53638 4926 ft 275 kts 193°
2026-05-06 07:36 37.62381 -122.53627 5553 ft 279 kts 163°
2026-05-06 07:36 37.60537 -122.52790 6197 ft 285 kts 157°
2026-05-06 07:37 37.58707 -122.51875 6900 ft 287 kts 158°
2026-05-06 07:37 37.56839 -122.50974 7653 ft 288 kts 158°
2026-05-06 07:37 37.54952 -122.50105 8405 ft 290 kts 158°
2026-05-06 07:37 37.53040 -122.49250 9144 ft 293 kts 158°
2026-05-06 07:38 37.51110 -122.48397 9937 ft 295 kts 158°
2026-05-06 07:38 37.49208 -122.47385 10444 ft 304 kts 143°
2026-05-06 07:38 37.47711 -122.45427 10618 ft 320 kts 123°
2026-05-06 07:38 37.46385 -122.43057 10789 ft 342 kts 122°
2026-05-06 07:39 37.44986 -122.40552 11039 ft 359 kts 122°
2026-05-06 07:39 37.43524 -122.37982 11680 ft 362 kts 123°
2026-05-06 07:39 37.42038 -122.35403 12321 ft 366 kts 123°
2026-05-06 07:39 37.40808 -122.32609 12914 ft 367 kts 105°
2026-05-06 07:40 37.40200 -122.29495 13608 ft 368 kts 101°
2026-05-06 07:40 37.39611 -122.26341 14263 ft 373 kts 101°
2026-05-06 07:40 37.39002 -122.23145 14855 ft 378 kts 101°
2026-05-06 07:40 37.38377 -122.19917 15464 ft 382 kts 101°
2026-05-06 07:41 37.37744 -122.16688 16087 ft 387 kts 101°
2026-05-06 07:41 37.37092 -122.13389 16714 ft 391 kts 101°
2026-05-06 07:41 37.36428 -122.10047 17311 ft 396 kts 101°
2026-05-06 07:41 37.35755 -122.06665 17904 ft 401 kts 101°
2026-05-06 07:42 37.35072 -122.03248 18471 ft 406 kts 101°
2026-05-06 07:42 37.34381 -121.99797 18998 ft 409 kts 100°
2026-05-06 07:42 37.33683 -121.96321 19571 ft 411 kts 100°
2026-05-06 07:42 37.32980 -121.92830 20145 ft 413 kts 100°
2026-05-06 07:43 37.32274 -121.89325 20683 ft 416 kts 100°
2026-05-06 07:43 37.31561 -121.85788 21196 ft 418 kts 100°
2026-05-06 07:43 37.30842 -121.82230 21707 ft 421 kts 100°
2026-05-06 07:43 37.30121 -121.78666 22216 ft 424 kts 100°
2026-05-06 07:44 37.29400 -121.75103 22681 ft 428 kts 100°
2026-05-06 07:44 37.28664 -121.71481 23169 ft 430 kts 100°
2026-05-06 07:44 37.27922 -121.67831 23657 ft 433 kts 100°
2026-05-06 07:44 37.27176 -121.64166 24073 ft 435 kts 100°
2026-05-06 07:45 37.26423 -121.60477 24478 ft 437 kts 100°
2026-05-06 07:45 37.25665 -121.56772 24846 ft 440 kts 100°
2026-05-06 07:45 37.24902 -121.53045 25236 ft 441 kts 100°
2026-05-06 07:45 37.24136 -121.49307 25629 ft 444 kts 100°
2026-05-06 07:46 37.23394 -121.45696 25996 ft 446 kts 100°
2026-05-06 07:46 37.22690 -121.42280 26357 ft 447 kts 100°
2026-05-06 07:46 37.21920 -121.38546 26718 ft 449 kts 100°
2026-05-06 07:46 37.21196 -121.35038 27046 ft 451 kts 100°
2026-05-06 07:47 37.20428 -121.31327 27368 ft 453 kts 100°
2026-05-06 07:47 37.19634 -121.27491 27706 ft 455 kts 100°
2026-05-06 07:47 37.18843 -121.23680 28128 ft 454 kts 100°
2026-05-06 07:47 37.18047 -121.19860 28643 ft 452 kts 100°
2026-05-06 07:48 37.17254 -121.16061 29117 ft 450 kts 99°
2026-05-06 07:48 37.16459 -121.12247 29115 ft 454 kts 100°
2026-05-06 07:48 37.14870 -121.04646 29114 ft 450 kts 100°
2026-05-06 07:49 37.13282 -120.97091 29133 ft 449 kts 100°
2026-05-06 07:49 37.11687 -120.89509 29135 ft 451 kts 100°
2026-05-06 07:50 37.10081 -120.81907 29133 ft 452 kts 100°
2026-05-06 07:50 37.08465 -120.74283 29139 ft 453 kts 100°
2026-05-06 07:51 37.06843 -120.66664 29130 ft 452 kts 100°
2026-05-06 07:51 37.05218 -120.59058 29119 ft 452 kts 100°
2026-05-06 07:52 37.03592 -120.51469 29119 ft 451 kts 100°
2026-05-06 07:52 37.01975 -120.43948 29126 ft 450 kts 100°
2026-05-06 07:53 37.00347 -120.36400 29134 ft 449 kts 100°
2026-05-06 07:53 36.98712 -120.28848 29128 ft 449 kts 100°
2026-05-06 07:54 36.97074 -120.21302 29129 ft 449 kts 100°
2026-05-06 07:54 36.95434 -120.13777 29127 ft 449 kts 100°
2026-05-06 07:55 36.93787 -120.06237 29136 ft 449 kts 100°
2026-05-06 07:55 36.92148 -119.98757 29131 ft 449 kts 100°
2026-05-06 07:56 36.90614 -119.91210 29127 ft 443 kts 90°
2026-05-06 07:56 36.90700 -119.87420 29148 ft 433 kts 76°
2026-05-06 07:56 36.91543 -119.83853 29146 ft 426 kts 65°
2026-05-06 07:57 36.93812 -119.77043 29137 ft 426 kts 63°
2026-05-06 07:57 36.96121 -119.70214 29126 ft 427 kts 64°
2026-05-06 07:58 36.98389 -119.63362 29133 ft 427 kts 64°
2026-05-06 07:58 37.00638 -119.56470 29116 ft 427 kts 64°
2026-05-06 07:59 37.02879 -119.49567 29108 ft 428 kts 64°
2026-05-06 07:59 37.05116 -119.42659 29083 ft 429 kts 64°
2026-05-06 08:00 37.07351 -119.35740 29085 ft 429 kts 64°
2026-05-06 08:00 37.09568 -119.28866 29088 ft 429 kts 64°
2026-05-06 08:01 37.11803 -119.21919 29073 ft 430 kts 64°
2026-05-06 08:01 37.14036 -119.14960 29059 ft 430 kts 64°
2026-05-06 08:02 37.16267 -119.07988 29051 ft 430 kts 64°
2026-05-06 08:02 37.18486 -119.01040 29046 ft 430 kts 64°
2026-05-06 08:03 37.20706 -118.94072 29050 ft 430 kts 64°
2026-05-06 08:04 37.24854 -118.81003 29037 ft 430 kts 64°
2026-05-06 08:04 37.26458 -118.75937 29025 ft 430 kts 65°
2026-05-06 08:05 37.27942 -118.69667 29039 ft 434 kts 77°
2026-05-06 08:05 37.28531 -118.62093 29048 ft 437 kts 80°
2026-05-06 08:06 37.29065 -118.54495 29052 ft 436 kts 80°
2026-05-06 08:06 37.29615 -118.46977 29071 ft 435 kts 79°
2026-05-06 08:07 37.30181 -118.39415 29066 ft 434 kts 79°
2026-05-06 08:07 37.30745 -118.31871 29074 ft 433 kts 79°
2026-05-06 08:08 37.31302 -118.24343 29061 ft 432 kts 79°
2026-05-06 08:08 37.31853 -118.16832 29036 ft 432 kts 79°
2026-05-06 08:09 37.32399 -118.09315 28977 ft 432 kts 79°
2026-05-06 08:09 37.32942 -118.01779 28977 ft 434 kts 79°
2026-05-06 08:10 37.33478 -117.94267 28972 ft 435 kts 79°
2026-05-06 08:10 37.34013 -117.86697 28967 ft 435 kts 79°
2026-05-06 08:11 37.34543 -117.79126 28953 ft 435 kts 80°
2026-05-06 08:11 37.35070 -117.71544 28970 ft 435 kts 80°
2026-05-06 08:12 37.35592 -117.63971 28961 ft 435 kts 80°
2026-05-06 08:12 37.36105 -117.56402 28968 ft 434 kts 80°
2026-05-06 08:13 37.36616 -117.48867 28965 ft 434 kts 80°
2026-05-06 08:13 37.37124 -117.41296 28971 ft 435 kts 80°
2026-05-06 08:14 37.37626 -117.33726 28969 ft 435 kts 80°
2026-05-06 08:14 37.37669 -117.29966 28954 ft 443 kts 91°
2026-05-06 08:14 37.36898 -117.26174 28981 ft 454 kts 105°
2026-05-06 08:15 37.35424 -117.22615 28965 ft 466 kts 120°
2026-05-06 08:15 37.33315 -117.19480 28988 ft 471 kts 126°
2026-05-06 08:15 37.28845 -117.13443 28971 ft 472 kts 127°
2026-05-06 08:16 37.24405 -117.07380 28964 ft 471 kts 126°
2026-05-06 08:16 37.20017 -117.01282 28966 ft 470 kts 126°
2026-05-06 08:17 37.15644 -116.95192 28963 ft 469 kts 126°
2026-05-06 08:17 37.11265 -116.89124 28964 ft 470 kts 127°
2026-05-06 08:18 37.06223 -116.83935 28979 ft 480 kts 140°
2026-05-06 08:18 37.00663 -116.79296 28947 ft 480 kts 141°
2026-05-06 08:19 36.95124 -116.74651 28936 ft 479 kts 140°
2026-05-06 08:19 36.89621 -116.69963 28948 ft 478 kts 140°
2026-05-06 08:20 36.84148 -116.65284 28947 ft 477 kts 140°
2026-05-06 08:20 36.78665 -116.60606 28916 ft 476 kts 140°
2026-05-06 08:21 36.73200 -116.55955 28929 ft 475 kts 140°
2026-05-06 08:21 36.67731 -116.51309 28479 ft 478 kts 140°
2026-05-06 08:22 36.65060 -116.48867 27730 ft 472 kts 134°
2026-05-06 08:22 36.62761 -116.46034 27148 ft 458 kts 126°
2026-05-06 08:22 36.60693 -116.43051 26550 ft 453 kts 125°
2026-05-06 08:22 36.58683 -116.40124 25960 ft 448 kts 126°
2026-05-06 08:23 36.56660 -116.37200 25378 ft 444 kts 126°
2026-05-06 08:23 36.54642 -116.34315 24797 ft 441 kts 127°
2026-05-06 08:23 36.52624 -116.31454 24213 ft 438 kts 127°
2026-05-06 08:23 36.50615 -116.28620 23634 ft 436 kts 127°
2026-05-06 08:24 36.48641 -116.25842 23433 ft 423 kts 127°
2026-05-06 08:24 36.46714 -116.23134 23195 ft 412 kts 127°
2026-05-06 08:24 36.44843 -116.20503 22879 ft 403 kts 127°
2026-05-06 08:24 36.42988 -116.17896 22366 ft 400 kts 127°
2026-05-06 08:25 36.41152 -116.15319 21897 ft 397 kts 128°
2026-05-06 08:25 36.39354 -116.12796 21456 ft 393 kts 128°
2026-05-06 08:25 36.37670 -116.10436 21023 ft 390 kts 128°
2026-05-06 08:25 36.35904 -116.07961 20594 ft 386 kts 128°
2026-05-06 08:26 36.34132 -116.05479 20157 ft 383 kts 128°
2026-05-06 08:26 36.32376 -116.03014 19718 ft 381 kts 128°
2026-05-06 08:26 36.30630 -116.00574 19444 ft 374 kts 128°
2026-05-06 08:26 36.28933 -115.98206 19289 ft 363 kts 128°
2026-05-06 08:27 36.27279 -115.95899 19132 ft 353 kts 128°
2026-05-06 08:27 36.25670 -115.93657 19005 ft 344 kts 128°
2026-05-06 08:27 36.24134 -115.91429 18728 ft 338 kts 125°
2026-05-06 08:27 36.22692 -115.89147 18429 ft 334 kts 123°
2026-05-06 08:28 36.21284 -115.86871 18121 ft 332 kts 123°
2026-05-06 08:28 36.19885 -115.84617 17779 ft 329 kts 124°
2026-05-06 08:28 36.18490 -115.82384 17452 ft 326 kts 124°
2026-05-06 08:28 36.17102 -115.80182 17141 ft 323 kts 124°
2026-05-06 08:29 36.15723 -115.78002 16860 ft 320 kts 124°
2026-05-06 08:29 36.14365 -115.75842 16569 ft 317 kts 122°
2026-05-06 08:29 36.13306 -115.73489 16272 ft 310 kts 108°
2026-05-06 08:29 36.12541 -115.70998 16006 ft 310 kts 107°
2026-05-06 08:30 36.11794 -115.68487 15703 ft 312 kts 107°
2026-05-06 08:30 36.11043 -115.65968 15411 ft 312 kts 107°
2026-05-06 08:30 36.10284 -115.63455 15134 ft 313 kts 108°
2026-05-06 08:30 36.09514 -115.60924 14830 ft 314 kts 108°
2026-05-06 08:31 36.08749 -115.58430 14542 ft 316 kts 108°
2026-05-06 08:31 36.07968 -115.55891 14251 ft 315 kts 108°
2026-05-06 08:31 36.07195 -115.53388 13946 ft 312 kts 108°
2026-05-06 08:31 36.06422 -115.50887 13630 ft 309 kts 108°
2026-05-06 08:32 36.05659 -115.48418 13321 ft 306 kts 108°
2026-05-06 08:32 36.04904 -115.45979 13027 ft 303 kts 108°
2026-05-06 08:32 36.04149 -115.43546 12708 ft 301 kts 108°
2026-05-06 08:32 36.03404 -115.41147 12432 ft 298 kts 108°
2026-05-06 08:33 36.02664 -115.38766 12167 ft 295 kts 108°
2026-05-06 08:33 36.01925 -115.36385 11894 ft 298 kts 108°
2026-05-06 08:33 36.01437 -115.33918 11605 ft 297 kts 92°
2026-05-06 08:33 36.01323 -115.31403 11348 ft 297 kts 90°
2026-05-06 08:34 36.01237 -115.28844 11073 ft 299 kts 90°
2026-05-06 08:34 36.01033 -115.23700 10508 ft 299 kts 91°
2026-05-06 08:34 36.00916 -115.21149 10224 ft 296 kts 91°
2026-05-06 08:35 36.00795 -115.18619 9970 ft 293 kts 91°
2026-05-06 08:35 36.00672 -115.16155 9748 ft 287 kts 91°
2026-05-06 08:35 36.00549 -115.13687 9424 ft 287 kts 91°
2026-05-06 08:35 36.00425 -115.11236 9109 ft 286 kts 91°
2026-05-06 08:36 36.00306 -115.08890 8841 ft 283 kts 91°
2026-05-06 08:36 36.00184 -115.06487 8559 ft 277 kts 92°
2026-05-06 08:36 36.00063 -115.04143 8295 ft 269 kts 91°
2026-05-06 08:36 35.99945 -115.01868 8037 ft 262 kts 91°
2026-05-06 08:37 35.99882 -114.99641 7710 ft 258 kts 89°
2026-05-06 08:37 35.99878 -114.97444 7380 ft 254 kts 89°
2026-05-06 08:37 35.99877 -114.95270 7085 ft 252 kts 90°
2026-05-06 08:37 36.00027 -114.93117 6758 ft 254 kts 71°
2026-05-06 08:38 36.00985 -114.91316 6479 ft 253 kts 40°
2026-05-06 08:38 36.02455 -114.90133 6163 ft 253 kts 20°
2026-05-06 08:38 36.04116 -114.89866 5835 ft 250 kts 349°
2026-05-06 08:38 36.05718 -114.90511 5547 ft 244 kts 331°
2026-05-06 08:39 36.07000 -114.91700 5250 ft 229 kts 301°
2026-05-06 08:39 36.07450 -114.93465 5052 ft 210 kts 274°
2026-05-06 08:39 36.07597 -114.95216 4800 ft 200 kts 274°
2026-05-06 08:39 36.07661 -114.96885 4543 ft 191 kts 269°
2026-05-06 08:40 36.07666 -114.98480 4300 ft 186 kts 268°
2026-05-06 08:40 36.07662 -115.00055 4066 ft 181 kts 268°
2026-05-06 08:40 36.07658 -115.01580 3842 ft 175 kts 268°
2026-05-06 08:40 36.07655 -115.03060 3607 ft 169 kts 268°
2026-05-06 08:41 36.07652 -115.04481 3402 ft 160 kts 268°
2026-05-06 08:41 36.07650 -115.05797 3220 ft 154 kts 268°
2026-05-06 08:41 36.07647 -115.07083 2997 ft 148 kts 267°
2026-05-06 08:41 36.07646 -115.07884 2888 ft 150 kts 268°
2026-05-06 08:42 36.07644 -115.09196 2667 ft 153 kts 267°
2026-05-06 08:42 36.07643 -115.10510 2474 ft 155 kts 266°
2026-05-06 08:42 36.07637 -115.11824 2222 ft 154 kts 266°
2026-05-06 08:42 36.07642 -115.13119 2086 ft 146 kts 266°
2026-05-06 08:43 36.07639 -115.14236 2095 ft 109 kts 270°
2026-05-06 08:43 36.07640 -115.14924 2103 ft 38 kts 270°
2026-05-06 08:43 36.07642 -115.15159 2109 ft 22 kts 281°
2026-05-06 08:43 36.07698 -115.15230 2108 ft 14 kts 336°
2026-05-06 08:44 36.07769 -115.15270 2103 ft 13 kts 335°
2026-05-06 08:44 36.07844 -115.15313 2101 ft 14 kts 334°
2026-05-06 08:44 36.07926 -115.15362 2098 ft 13 kts 335°
2026-05-06 08:44 36.08007 -115.15409 2097 ft 13 kts 334°
2026-05-06 08:45 36.08088 -115.15445 2097 ft 12 kts
2026-05-06 08:45 36.08162 -115.15431 2097 ft 9 kts 11°
2026-05-06 08:45 36.08215 -115.15420 2096 ft 7 kts 22°
2026-05-06 08:45 36.08237 -115.15398 2096 ft 2 kts 59°
2026-05-06 08:46 36.08243 -115.15382 2096 ft 2 kts 65°
2026-05-06 08:46 36.08249 -115.15367 2096 ft 2 kts 66°
2026-05-06 08:46 36.08253 -115.15354 2096 ft 1 kts 66°
2026-05-06 08:46 36.08256 -115.15348 2096 ft 0 kts 66°